Voltar ao catálogo

YINHE-8

AtivoComunicaçõesSSO
NORAD 57424·PAYLOAD·🇨🇳 China
Este nome de satélite ainda não foi confirmado por fontes oficiais.

Lançado Jul 23, 2023 de Taiyuan Satellite Launch Center

Loading…

Próximas Passagens (próximas 24 horas)

TLE

AtualizadoSource: Space-Track

Época: Sep 14, 2026, 15:43 UTC

1 57424U 23104A   26257.65546133  .00008824  00000-0  24916-3 0  9994
2 57424  97.2619 324.7280 0007996 144.9777 215.1994 15.36568959175779

Acompanhe YINHE-8 em tempo real com AllMySat

Download on the App Store